Location: Unspecified
(0.0000°N, 0.0000°E)
Time: 03:42:23
(UTC+00:00)

Shinsei - Pass Details

Date: 23 May 2026
Orbit: 869 x 1860 km, 32.1° (Epoch: 10 June)

Event Time Altitude Azimuth Distance (km) Brightness Sun altitude
Rises 20:44:28 0° 226° (SW) 4,129 13.0 -38.7°
Reaches altitude 10° 20:47:09 10° 221° (SW) 3,291 12.3 -39.3°
Enters shadow 20:49:10 20° 216° (SW) 2,710 11.8 -39.7°
